Regional Weather Roundup
Issued by NWS

Home | Current Version | Previous Version | Text Only | Print | Product List | Glossary Off
Versions: 1 2 3 4 5 6 7 8 9 10 11 12 13 14 15 16 17 18 19 20 21 22 23 24 25 26 27 28 29 30 31 32 33 34 35 36 37 38 39 40 41 42 43 44 45 46 47 48 49 50

000
ASUS43 KLMK 200102
RWRKY
KENTUCKY REGIONAL WEATHER ROUNDUP
NATIONAL WEATHER SERVICE LOUISVILLE KY
900 PM EDT TUE AUG 19 2014

NOTE "FAIR" INDICATES FEW OR NO CLOUDS BELOW 12,000 FEET
WITH NO SIGNIFICANT WEATHER AND/OR OBSTRUCTIONS TO VISIBILITY.

KYZ001>023-026-027-061>063-070>075-200200-
WESTERN AND SOUTH CENTRAL KENTUCKY

CITY           SKY/WX    TMP DP  RH WIND       PRES   REMARKS
PADUCAH        CLOUDY    79  73  82 SW3       29.82S
HENDERSON      MOCLDY    81  73  78 SW6       29.80S
OWENSBORO      CLOUDY    82  75  79 CALM      29.82R
HOPKINSVILLE   MOCLDY    83  76  77 SW9       29.84R HX  92
BOWLING GREEN  CLOUDY    84  71  65 S8        29.85R
GLASGOW        MOCLDY    80  71  74 CALM      29.87S
$$

KYZ024-025-028>034-038-045-046-053-200200-
NORTH CENTRAL KENTUCKY

CITY           SKY/WX    TMP DP  RH WIND       PRES   REMARKS
LOUISVILLE/SDF MOCLDY    83  70  64 SW3       29.83R
LOUISVILLE/LOU MOCLDY    83  69  62 CALM      29.84R
FORT KNOX      MOCLDY    79  72  81 SE3       29.83S
$$

KYZ035>037-039>044-047>052-055>060-089>105-200200-
NORTHEAST KENTUCKY

CITY           SKY/WX    TMP DP  RH WIND       PRES   REMARKS
LEXINGTON      PTCLDY    78  70  76 SW6       29.88R
COVINGTON      CLOUDY    80  67  64 CALM      29.84S
FRANKFORT      MOCLDY    78  70  76 SW3       29.86R
$$

KYZ054-064>069-076>088-106>120-200200-
SOUTHEAST KENTUCKY

CITY           SKY/WX    TMP DP  RH WIND       PRES   REMARKS
JACKSON        CLEAR     77  69  76 S3        29.91R
LONDON         CLEAR     79  69  71 SW3       29.92R
SOMERSET       PTCLDY    77  70  78 CALM      29.91R
MIDDLESBORO    CLEAR     74  70  86 NW5       29.93R
MONTICELLO     CLEAR     73  71  93 CALM      29.92R FOG
$$




USA.gov is the U.S. government's official web portal to all federal, state and local government web resources and services.